CW7443 Weather Reports


Display with metric or nautical units.
time (UTC)temp
F
wind
direction
speed
MPH
gust
MPH
rain 1hr
in
rain 24hr
in
rain mn
in
humidity
%
barometer
mb
20181015122315 59 161 1.0 4.0 0.03 0.10 0.06 98 1014.8
20181015121822 59 173 0.0 4.0 0.04 0.10 0.06 98 1014.2
20181015121315 59 158 1.0 5.0 0.03 0.09 0.05 98 1014.2
20181015120822 59 191 1.0 5.0 0.03 0.09 0.05 98 1014.2
20181015120318 59 200 2.0 5.0 0.03 0.09 0.05 98 1014.8
20181015115811 59 103 0.0 3.0 0.03 0.09 0.05 98 1014.8
20181015115318 59 204 0.0 3.0 0.03 0.09 0.05 98 1014.8
20181015114823 59 138 0.0 3.0 0.03 0.09 0.05 98 1014.8
20181015114315 59 141 0.0 1.0 0.03 0.08 0.04 98 1014.8
20181015113823 59 110 0.0 5.0 0.03 0.08 0.04 98 1014.8
20181015113312 59 145 0.0 7.0 0.03 0.08 0.04 98 1015.0
20181015112820 59 162 1.0 7.0 0.02 0.07 0.03 98 1015.0
20181015112309 59 124 0.0 2.0 0.02 0.07 0.03 98 1015.0
20181015111816 59 175 0.0 5.0 0.01 0.06 0.02 98 1015.3
20181015111322 59 146 0.0 5.0 0.01 0.06 0.02 98 1015.3
20181015110828 59 119 1.0 5.0 0.01 0.06 0.02 98 1015.3
20181015110325 59 205 0.0 5.0 0.01 0.06 0.02 98 1015.3
20181015105817 59 84 1.0 5.0 0.01 0.06 0.02 98 1015.3
20181015105323 58 194 0.0 5.0 0.01 0.06 0.02 98 1015.3
20181015104811 58 163 0.0 6.0 0.01 0.06 0.02 98 1015.0
20181015104323 58 90 0.0 6.0 0.00 0.05 0.01 98 1015.0
20181015103809 58 91 0.0 6.0 0.00 0.05 0.01 98 1015.0
20181015103315 58 46 0.0 6.0 0.00 0.05 0.01 98 1015.0
20181015102826 58 150 0.0 5.0 0.00 0.05 0.01 98 1015.0
20181015102313 58 136 1.0 7.0 0.00 0.05 0.01 98 1015.0
20181015101821 58 102 1.0 7.0 0.00 0.05 0.01 98 1014.8
20181015101311 58 167 2.0 6.0 0.00 0.05 0.01 98 1014.8
20181015100818 58 113 0.0 4.0 0.00 0.05 0.01 98 1014.8
20181015100316 58 250 1.0 6.0 0.00 0.05 0.01 98 1014.7
20181015095827 58 192 0.0 6.0 0.00 0.05 0.01 98 1014.7
20181015095317 58 280 0.0 4.0 0.00 0.05 0.01 98 1014.7
20181015094823 58 123 0.0 4.0 0.00 0.05 0.01 98 1014.8
20181015094314 58 164 1.0 8.0 0.00 0.05 0.01 98 1014.8
20181015093820 58 242 1.0 8.0 0.00 0.05 0.01 98 1014.8
20181015093326 58 159 2.0 8.0 0.00 0.05 0.01 98 1014.2
20181015092818 58 115 0.0 7.0 0.00 0.05 0.01 98 1014.2
20181015092325 58 116 0.0 7.0 0.00 0.05 0.01 98 1014.2
20181015091812 58 157 1.0 6.0 0.00 0.05 0.01 98 1014.3
20181015091322 58 210 1.0 5.0 0.00 0.05 0.01 98 1014.3
20181015090829 58 105 0.0 4.0 0.00 0.05 0.01 98 1014.3
20181015090325 58 161 0.0 2.0 0.00 0.05 0.01 98 1014.3
20181015085815 58 113 0.0 4.0 0.00 0.05 0.01 98 1014.3
20181015085321 58 148 0.0 4.0 0.00 0.05 0.01 98 1014.3
20181015084829 58 163 0.0 2.0 0.00 0.05 0.01 98 1014.1
20181015084321 57 161 0.0 4.0 0.00 0.05 0.01 98 1014.1
20181015083828 57 152 0.0 4.0 0.00 0.05 0.01 98 1014.1
20181015083314 57 267 0.0 4.0 0.00 0.05 0.01 98 1014.3
20181015082828 57 267 0.0 4.0 0.00 0.05 0.01 98 1014.3
20181015082317 57 164 0.0 3.0 0.00 0.05 0.01 98 1014.3
20181015081823 57 112 0.0 4.0 0.00 0.05 0.01 98 1014.8
20181015081314 56 111 0.0 4.0 0.00 0.05 0.01 98 1014.8
20181015080822 56 165 0.0 1.0 0.00 0.05 0.01 98 1014.8
20181015080319 56 131 0.0 1.0 0.00 0.05 0.01 98 1014.8
20181015075830 56 217 0.0 2.0 0.00 0.05 0.01 98 1014.8
20181015075317 56 226 0.0 2.0 0.00 0.05 0.01 98 1014.8
20181015074825 55 188 0.0 2.0 0.00 0.05 0.01 98 1014.8
20181015074316 55 157 0.0 1.0 0.01 0.05 0.01 97 1014.8
20181015073823 55 182 0.0 1.0 0.01 0.05 0.01 97 1014.8
20181015073329 55 182 0.0 2.0 0.01 0.05 0.01 98 1014.9
20181015072821 55 192 0.0 2.0 0.01 0.05 0.01 98 1014.9
20181015072326 55 191 0.0 2.0 0.01 0.05 0.01 98 1014.9
20181015071831 55 181 0.0 2.0 0.01 0.05 0.01 97 1015.3
20181015071324 55 181 0.0 1.0 0.01 0.05 0.01 97 1015.3
20181015070831 55 180 0.0 4.0 0.01 0.05 0.01 97 1015.3
20181015070328 55 211 0.0 4.0 0.01 0.05 0.01 97 1015.2
20181015065818 55 219 0.0 1.0 0.01 0.05 0.01 97 1015.2
20181015065324 55 219 0.0 0.0 0.01 0.05 0.01 97 1015.2
20181015064815 54 219 0.0 0.0 0.01 0.05 0.01 97 1015.3
20181015064324 54 219 0.0 0.0 0.00 0.04 0.00 97 1015.3
20181015063832 54 219 0.0 1.0 0.00 0.04 0.00 97 1015.3
20181015063317 54 219 0.0 1.0 0.00 0.04 0.00 97 1015.5
20181015062829 54 219 0.0 1.0 0.00 0.04 0.00 97 1015.5
20181015062315 54 219 0.0 1.0 0.00 0.04 0.00 97 1015.5
20181015061823 54 235 0.0 1.0 0.00 0.04 0.00 97 1015.5
20181015061332 54 235 0.0 1.0 0.00 0.04 0.00 97 1015.5
20181015060819 54 232 0.0 1.0 0.00 0.04 0.00 97 1015.5
20181015060319 54 232 0.0 1.0 0.00 0.04 0.00 97 1015.4
20181015055830 54 232 0.0 0.0 0.00 0.04 0.00 97 1015.4
20181015055316 54 232 0.0 0.0 0.00 0.04 0.00 97 1015.4
20181015054822 54 232 0.0 1.0 0.00 0.04 0.00 97 1015.3
20181015054333 54 232 0.0 1.0 0.00 0.04 0.00 97 1015.3
20181015053820 54 232 0.0 1.0 0.00 0.04 0.00 97 1015.3
20181015053326 54 210 0.0 0.0 0.00 0.04 0.00 97 1015.8
20181015052818 54 210 0.0 0.0 0.00 0.04 0.00 97 1015.8
20181015052324 54 209 0.0 1.0 0.00 0.04 0.00 97 1015.8
20181015051814 54 209 0.0 2.0 0.00 0.04 0.00 97 1015.9
20181015051323 54 212 0.0 2.0 0.00 0.04 0.00 97 1015.9
20181015050830 54 213 0.0 2.0 0.00 0.04 0.00 97 1015.9
20181015050326 53 330 0.0 1.0 0.00 0.04 0.00 97 1015.9
20181015045818 53 316 0.0 1.0 0.00 0.04 0.00 97 1015.9
20181015045326 53 316 0.0 1.0 0.00 0.04 0.00 97 1015.9
20181015044834 53 304 0.0 1.0 0.00 0.04 0.00 97 1016.1
20181015044322 53 304 0.0 1.0 0.00 0.04 0.00 97 1016.1
20181015043830 53 304 0.0 0.0 0.00 0.04 0.00 97 1016.1
20181015043316 53 304 0.0 0.0 0.00 0.04 0.00 97 1016.4
20181015042826 53 304 0.0 0.0 0.00 0.04 0.00 97 1016.4
20181015042333 53 304 0.0 1.0 0.00 0.04 0.00 97 1016.4
20181015041821 53 304 0.0 1.0 0.00 0.04 0.00 97 1016.4
20181015041333 53 304 0.0 1.0 0.00 0.04 0.00 97 1016.4
20181015040822 53 304 0.0 1.0 0.00 0.04 0.00 97 1016.4
20181015040319 53 230 0.0 0.0 0.00 0.04 0.04 97 1016.4
20181015035834 53 230 0.0 0.0 0.00 0.04 0.04 97 1016.4
20181015035320 53 230 0.0 0.0 0.00 0.04 0.04 97 1016.4
20181015034831 53 230 0.0 1.0 0.00 0.04 0.04 97 1016.7
20181015034318 53 230 0.0 2.0 0.00 0.04 0.04 97 1016.7
20181015033824 53 230 1.0 2.0 0.00 0.04 0.04 97 1016.7
20181015033330 53 229 0.0 0.0 0.00 0.04 0.04 97 1016.6
20181015032819 52 229 0.0 0.0 0.00 0.04 0.04 97 1016.6
20181015032325 52 229 0.0 2.0 0.00 0.04 0.04 96 1016.6
20181015031830 52 229 0.0 2.0 0.01 0.04 0.04 96 1016.9
20181015031322 52 323 0.0 0.0 0.01 0.04 0.04 96 1016.9
20181015030828 52 329 0.0 0.0 0.01 0.04 0.04 96 1016.9
20181015030326 52 329 0.0 0.0 0.01 0.04 0.04 96 1017.0
20181015025836 52 329 0.0 2.0 0.01 0.04 0.04 96 1017.0
20181015025322 52 329 0.0 2.0 0.01 0.04 0.04 96 1017.0
20181015024829 52 190 0.0 0.0 0.01 0.04 0.04 96 1017.0
20181015024320 52 190 0.0 0.0 0.01 0.04 0.04 96 1017.0
20181015023827 52 190 0.0 0.0 0.01 0.04 0.04 96 1017.0
20181015023332 52 190 0.0 0.0 0.01 0.04 0.04 96 1017.2
20181015022820 52 190 0.0 0.0 0.01 0.04 0.04 96 1017.2
20181015022326 52 190 0.0 0.0 0.00 0.03 0.03 96 1017.2
20181015021817 52 190 0.0 0.0 0.00 0.03 0.03 96 1017.2
20181015021323 52 190 0.0 0.0 0.00 0.03 0.03 96 1017.2
20181015020835 52 190 0.0 2.0 0.00 0.03 0.03 96 1017.2
20181015020332 52 190 0.0 2.0 0.00 0.03 0.03 96 1017.4
20181015015825 52 313 0.0 1.0 0.00 0.03 0.03 96 1017.4
20181015015331 52 313 0.0 1.0 0.00 0.03 0.03 96 1017.4
20181015014818 51 313 0.0 0.0 0.00 0.03 0.03 96 1017.4
20181015014329 51 313 0.0 0.0 0.00 0.03 0.03 96 1017.4
20181015013836 51 313 0.0 0.0 0.00 0.03 0.03 96 1017.4
20181015013319 51 313 0.0 0.0 0.00 0.03 0.03 96 1017.4
20181015012832 51 316 0.0 0.0 0.00 0.03 0.03 96 1017.4
20181015012318 51 316 0.0 0.0 0.01 0.03 0.03 96 1017.4
20181015011826 51 316 0.0 0.0 0.01 0.03 0.03 96 1017.5
20181015011337 51 316 0.0 1.0 0.01 0.03 0.03 96 1017.5
20181015010824 51 316 0.0 1.0 0.01 0.03 0.03 95 1017.5
20181015010321 51 316 0.0 0.0 0.01 0.03 0.03 95 1017.7
20181015005833 51 316 0.0 0.0 0.01 0.03 0.03 95 1017.7
20181015005319 51 316 0.0 2.0 0.01 0.03 0.03 95 1017.7
20181015004825 51 316 0.0 2.0 0.01 0.03 0.03 95 1017.9
20181015004336 51 173 0.0 0.0 0.01 0.03 0.03 95 1017.9
20181015003828 51 173 0.0 0.0 0.01 0.03 0.03 95 1017.9
20181015003333 51 173 0.0 0.0 0.01 0.03 0.03 95 1017.8
20181015002825 51 173 0.0 0.0 0.00 0.02 0.02 95 1017.8
20181015002331 51 173 0.0 0.0 0.00 0.02 0.02 95 1017.8
20181015001836 51 173 0.0 0.0 0.00 0.02 0.02 94 1018.0
20181015001325 51 173 0.0 0.0 0.00 0.02 0.02 94 1018.0
20181015000833 51 173 0.0 0.0 0.00 0.02 0.02 94 1018.0
20181015000330 51 173 0.0 0.0 0.00 0.02 0.02 94 1018.0
20181014235823 51 173 0.0 0.0 0.00 0.02 0.02 94 1018.0
20181014235328 51 173 0.0 0.0 0.00 0.02 0.02 94 1018.0
20181014234836 51 173 0.0 0.0 0.00 0.02 0.02 94 1018.0
20181014234328 51 173 0.0 0.0 0.00 0.02 0.02 93 1018.0
20181014233836 51 173 0.0 0.0 0.00 0.02 0.02 93 1018.0
20181014233321 51 173 0.0 0.0 0.00 0.02 0.02 93 1018.0
20181014232834 51 173 0.0 0.0 0.00 0.02 0.02 93 1018.0
20181014232320 51 173 0.0 0.0 0.00 0.02 0.02 92 1018.0
20181014231826 52 173 0.0 0.0 0.00 0.02 0.02 92 1018.0
20181014231338 52 173 0.0 0.0 0.00 0.02 0.02 92 1018.0
20181014230829 52 173 0.0 0.0 0.00 0.02 0.02 91 1018.0
20181014230326 52 173 0.0 0.0 0.00 0.02 0.02 91 1017.8
20181014225836 52 173 0.0 1.0 0.00 0.02 0.02 91 1017.8
20181014225322 52 173 0.0 1.0 0.00 0.02 0.02 90 1017.8
20181014224830 52 173 0.0 0.0 0.00 0.02 0.02 90 1017.6
20181014224322 52 173 0.0 0.0 0.00 0.02 0.02 89 1017.6
20181014223828 52 173 0.0 0.0 0.00 0.02 0.02 89 1017.6
20181014223333 52 173 0.0 0.0 0.00 0.02 0.02 88 1017.8
20181014222824 52 173 0.0 1.0 0.00 0.02 0.02 88 1017.8
20181014222331 52 173 0.0 1.0 0.00 0.02 0.02 88 1017.8
20181014221836 53 173 0.0 0.0 0.00 0.02 0.02 88 1018.0
20181014221328 53 173 0.0 0.0 0.00 0.02 0.02 87 1018.0
20181014220836 53 173 0.0 0.0 0.00 0.02 0.02 86 1018.0
20181014220334 53 173 0.0 1.0 0.00 0.02 0.02 86 1018.0
20181014215840 53 173 0.0 1.0 0.00 0.02 0.02 85 1018.0
20181014215327 53 171 0.0 0.0 0.00 0.02 0.02 84 1018.0
20181014214833 53 171 0.0 3.0 0.00 0.02 0.02 82 1018.1
20181014214326 54 171 1.0 3.0 0.00 0.02 0.02 81 1018.1
20181014213830 54 177 0.0 2.0 0.00 0.02 0.02 78 1018.1
20181014213339 54 177 0.0 2.0 0.00 0.02 0.02 76 1018.1
20181014212832 54 142 0.0 1.0 0.00 0.02 0.02 76 1018.1
20181014212339 54 142 0.0 1.0 0.00 0.02 0.02 75 1018.1
20181014211825 54 142 0.0 1.0 0.00 0.02 0.02 74 1018.4
20181014211335 55 142 0.0 3.0 0.00 0.02 0.02 74 1018.4
20181014210823 55 142 0.0 3.0 0.00 0.02 0.02 73 1018.4
20181014210340 55 242 0.0 1.0 0.00 0.02 0.02 72 1018.4
20181014205830 55 242 0.0 3.0 0.00 0.02 0.02 71 1018.4
20181014205336 55 211 0.0 3.0 0.00 0.02 0.02 71 1018.4
20181014204823 55 175 0.0 2.0 0.00 0.02 0.02 70 1018.5
20181014204333 55 184 0.0 3.0 0.00 0.02 0.02 69 1018.5
20181014203841 55 184 0.0 3.0 0.00 0.02 0.02 70 1018.5
20181014203324 56 250 0.0 0.0 0.00 0.02 0.02 71 1018.5
20181014202834 56 250 0.0 2.0 0.00 0.02 0.02 72 1018.5
20181014202322 56 250 0.0 2.0 0.00 0.02 0.02 70 1018.5
20181014201828 56 178 0.0 1.0 0.00 0.02 0.02 69 1018.5
20181014201339 56 178 0.0 1.0 0.00 0.02 0.02 67 1018.5
20181014200827 57 185 0.0 3.0 0.00 0.02 0.02 67 1018.5
20181014200327 57 184 0.0 3.0 0.00 0.02 0.02 68 1018.5
20181014195831 57 201 0.0 4.0 0.00 0.02 0.02 65 1018.5
20181014195341 57 203 1.0 4.0 0.00 0.02 0.02 65 1018.5
20181014194828 57 221 0.0 2.0 0.00 0.02 0.02 66 1018.6
20181014194340 57 259 0.0 5.0 0.00 0.02 0.02 67 1018.6
20181014193826 57 194 1.0 5.0 0.00 0.02 0.02 69 1018.6
20181014193331 57 178 0.0 1.0 0.00 0.02 0.02 68 1018.7
20181014192840 57 221 0.0 1.0 0.00 0.02 0.02 68 1018.7
20181014192328 57 169 0.0 2.0 0.00 0.02 0.02 69 1018.7
20181014191833 57 169 0.0 3.0 0.00 0.02 0.02 70 1018.9
20181014191322 57 219 0.0 3.0 0.00 0.02 0.02 68 1018.9
20181014190830 57 219 0.0 1.0 0.00 0.02 0.02 68 1018.9
20181014190326 56 219 0.0 5.0 0.00 0.02 0.02 69 1019.0
20181014185837 56 219 1.0 5.0 0.00 0.02 0.02 67 1019.0
20181014185324 56 218 1.0 7.0 0.00 0.02 0.02 67 1019.0
20181014184831 57 211 1.0 7.0 0.00 0.02 0.02 68 1019.1
20181014184322 57 98 0.0 4.0 0.00 0.02 0.02 71 1019.1
20181014183829 56 191 0.0 3.0 0.00 0.02 0.02 72 1019.1
20181014183335 55 123 0.0 4.0 0.00 0.02 0.02 72 1019.3
20181014182826 55 209 0.0 4.0 0.00 0.02 0.02 72 1019.3
20181014182337 54 271 0.0 6.0 0.00 0.02 0.02 73 1019.3
20181014181824 54 220 2.0 6.0 0.00 0.02 0.02 73 1019.5
20181014181335 54 164 0.0 2.0 0.00 0.02 0.02 76 1019.5
20181014180823 53 214 0.0 2.0 0.00 0.02 0.02 76 1019.5
20181014180339 53 223 0.0 2.0 0.00 0.02 0.02 74 1019.7
20181014175832 53 223 0.0 2.0 0.00 0.02 0.02 73 1019.7
20181014175339 53 182 0.0 3.0 0.00 0.02 0.02 76 1019.7
20181014174825 53 231 1.0 3.0 0.00 0.02 0.02 75 1020.1
20181014174337 53 246 0.0 2.0 0.00 0.02 0.02 77 1020.1
20181014173844 53 246 0.0 3.0 0.00 0.02 0.02 78 1020.1
20181014173326 53 246 0.0 3.0 0.00 0.02 0.02 77 1020.2
20181014172835 52 208 0.0 3.0 0.00 0.02 0.02 78 1020.2
20181014172340 52 208 0.0 1.0 0.00 0.02 0.02 80 1020.2
20181014171827 52 208 0.0 2.0 0.00 0.02 0.02 81 1020.5
20181014171339 51 208 0.0 3.0 0.00 0.02 0.02 80 1020.5
20181014170825 51 288 1.0 3.0 0.00 0.02 0.02 80 1020.5
20181014170322 51 178 0.0 2.0 0.00 0.02 0.02 80 1020.7
20181014165830 51 114 0.0 2.0 0.00 0.02 0.02 82 1020.7
20181014165336 50 214 0.0 2.0 0.00 0.02 0.02 83 1020.7
20181014164827 50 214 0.0 2.0 0.00 0.02 0.02 85 1020.8
20181014164338 50 214 0.0 3.0 0.00 0.02 0.02 84 1020.8
20181014163825 50 214 1.0 3.0 0.00 0.02 0.02 85 1020.8
20181014163330 49 200 0.0 2.0 0.00 0.02 0.02 85 1021.0
20181014162840 49 200 0.0 2.0 0.00 0.02 0.02 87 1021.0
20181014162326 49 96 0.0 2.0 0.00 0.02 0.02 88 1021.0
20181014161833 48 169 0.0 3.0 0.00 0.02 0.02 88 1021.2
20181014161325 48 207 1.0 3.0 0.00 0.02 0.02 88 1021.2
20181014160833 48 188 0.0 2.0 0.00 0.02 0.02 89 1021.2
20181014160329 47 194 0.0 2.0 0.00 0.02 0.02 90 1021.2
20181014155839 47 194 0.0 2.0 0.00 0.02 0.02 90 1021.2
20181014155325 46 126 0.0 1.0 0.00 0.02 0.02 91 1021.2
20181014154832 46 126 0.0 0.0 0.00 0.02 0.02 90 1021.3
20181014154339 46 126 0.0 0.0 0.00 0.02 0.02 91 1021.3
20181014153825 46 126 0.0 0.0 0.00 0.02 0.02 91 1021.3
20181014153330 46 126 0.0 0.0 0.00 0.02 0.02 91 1021.4
20181014152834 46 126 0.0 0.0 0.00 0.02 0.02 91 1021.4
20181014152340 46 126 0.0 1.0 0.00 0.02 0.02 91 1021.4
20181014151830 45 126 0.0 1.0 0.00 0.02 0.02 91 1021.5
20181014151334 45 126 0.0 0.0 0.01 0.02 0.02 92 1021.5
20181014150825 45 126 0.0 0.0 0.01 0.02 0.02 92 1021.5
20181014150341 45 126 0.0 0.0 0.01 0.02 0.02 92 1021.4
20181014145832 45 126 0.0 1.0 0.01 0.02 0.02 92 1021.4
20181014145339 45 126 0.0 1.0 0.02 0.02 0.02 92 1021.4
20181014144826 45 126 0.0 1.0 0.02 0.02 0.02 92 1021.3
20181014144335 45 126 0.0 1.0 0.02 0.02 0.02 92 1021.3
20181014143824 45 126 0.0 1.0 0.02 0.02 0.02 92 1021.3
20181014143331 45 126 0.0 2.0 0.02 0.02 0.02 92 1021.2
20181014142841 44 126 0.0 2.0 0.02 0.02 0.02 92 1021.2
20181014142327 44 126 0.0 0.0 0.02 0.02 0.02 92 1021.2
20181014141833 44 126 0.0 0.0 0.02 0.02 0.02 92 1021.7
20181014141325 44 126 0.0 0.0 0.01 0.01 0.01 92 1021.7
20181014140834 44 126 0.0 0.0 0.01 0.01 0.01 92 1021.7
20181014140330 43 126 0.0 0.0 0.01 0.01 0.01 91 1021.8
20181014135840 43 126 0.0 0.0 0.01 0.01 0.01 91 1021.8
20181014135325 43 126 0.0 0.0 0.00 0.00 0.00 91 1021.8
20181014134831 43 126 0.0 0.0 0.00 0.00 0.00 91 1021.9
20181014134326 43 126 0.0 0.0 0.00 0.00 0.00 91 1021.9
20181014133837 43 126 0.0 0.0 0.00 0.00 0.00 91 1021.9
20181014133321 43 126 0.0 0.0 0.00 0.00 0.00 91 1021.7
20181014132833 43 126 0.0 0.0 0.00 0.00 0.00 92 1021.7
20181014132339 43 126 0.0 1.0 0.00 0.00 0.00 92 1021.7
20181014131826 43 126 0.0 1.0 0.00 0.00 0.00 92 1021.2
20181014131336 43 126 0.0 1.0 0.00 0.00 0.00 93 1021.2
20181014130824 43 126 0.0 0.0 0.00 0.00 0.00 93 1021.2
20181014130341 43 126 0.0 0.0 0.00 0.00 0.00 93 1021.2
20181014125832 43 126 0.0 0.0 0.00 0.00 0.00 93 1021.2
20181014125338 42 126 0.0 0.0 0.00 0.00 0.00 93 1021.2
20181014124826 42 126 0.0 0.0 0.00 0.00 0.00 93 1021.3
20181014124337 42 126 0.0 0.0 0.00 0.00 0.00 93 1021.3
20181014123824 42 126 0.0 0.0 0.00 0.00 0.00 93 1021.3
20181014123328 42 126 0.0 0.0 0.00 0.00 0.00 93 1021.1
20181014122840 42 126 0.0 1.0 0.00 0.00 0.00 93 1021.1